You are listening to:
YSBK ATIS - Bankstown, New South Wales, Australia

YSSY 181030Z 02004KT CAVOK 18/12 Q1019

If stream doesn't start automatically press the play button
If stream stops then reload player then press play